Location: Aalen
(48.8330°N, 10.1000°E)
Time: 15:18:02
(UTC+02:00)

O/OREOS (USA 219) - Pass Details

Date: 06 April 2023
Orbit: 621 x 646 km, 72.0° (Epoch: 22 May)

Event Time Altitude Azimuth Distance (km) Brightness Sun altitude
Exits shadow 04:26:10 24° 158° (SSE) 1,316 ? -21.8°
Maximum altitude 04:28:16 38° 108° (ESE) 976 ? -21.6°
Drops below altitude 10° 04:32:29 10° 40° (NE) 2,030 ? -21.0°
Sets 04:34:51 0° 33° (NNE) 2,939 ? -20.7°
